Savoonga, AK

3:20 AM AKST on December 16, 2017 (GMT -0900)
Savoonga

Weather History for PASA - June, 2013

Change the Weather History Date:

Wednesday, June 26, 2013

  Actual Average Record
Temperature  
Mean Temperature 45 °F -  
Max Temperature 51 °F 47 °F 60 °F (2016)
Min Temperature 39 °F 37 °F 33 °F (2002)
Degree Days  
Heating Degree Days 20    
Moisture  
Dew Point 40 °F    
Average Humidity 83    
Maximum Humidity 93    
Minimum Humidity 67    
Precipitation  
Precipitation 0.00 in - - ()
Sea Level Pressure  
Sea Level Pressure 29.89 in    
Wind  
Wind Speed 12 mph (WSW)    
Max Wind Speed 23 mph    
Max Gust Speed 28 mph    
Visibility 10 miles    
Events      
Averages and records for this station are not official NWS values.
T = Trace of Precipitation, MM = Missing Value Source: NWS Daily Summary

Daily Weather History Graph

Daily Weather History Graph

Search for Another Location

Airport or City:

Trip Planner

Search our weather history database for the weather conditions in past years. The results will help you decide how hot, cold, wet, or windy it might be!

Date:

Astronomy

Jun. 26, 2013 Rise Set
Actual Time 5:03 AM AKDT 1:45 AM AKDT
Civil Twilight Sun does not rise Sun does not rise
Nautical Twilight Sun does not rise Sun does not rise
Astronomical Twilight Sun does not rise Sun does not rise
Moon 1:46 AM AKDT (6/26) 11:13 AM AKDT (6/26)
Length of Visible Light 24h 00m
Length of Day
20h 41m
Waning Gibbous, 84% of the Moon is Illuminated
Jun 26
Waning Gibbous
Jun 29
Last Quarter
Jul 7
New
Jul 15
First Quarter
Jul 22
Full

Hourly Weather History & Observations

Time (AKDT) Temp. Windchill Dew Point Humidity Pressure Visibility Wind Dir Wind Speed Gust Speed Precip Events Conditions
12:16 AM 41.0 °F 35.8 °F 37.4 °F 87% 29.88 in 10.0 mi WSW 8.1 mph - N/A   Overcast
12:36 AM 39.2 °F 32.5 °F 37.4 °F 93% 29.88 in 10.0 mi West 10.4 mph - N/A   Overcast
12:56 AM 39.2 °F 32.5 °F 37.4 °F 93% 29.88 in 10.0 mi WSW 10.4 mph - N/A   Overcast
1:16 AM 39.2 °F 33.0 °F 37.4 °F 93% 29.88 in 10.0 mi WSW 9.2 mph - N/A   Overcast
1:36 AM 39.2 °F 34.2 °F 37.4 °F 93% 29.88 in 10.0 mi West 6.9 mph - N/A   Overcast
1:56 AM 39.2 °F 33.0 °F 37.4 °F 93% 29.88 in 10.0 mi WSW 9.2 mph - N/A   Overcast
2:16 AM 39.2 °F 33.6 °F 37.4 °F 93% 29.88 in 10.0 mi WSW 8.1 mph - N/A   Overcast
2:36 AM 39.2 °F 33.6 °F 37.4 °F 93% 29.88 in 10.0 mi WSW 8.1 mph - N/A   Overcast
2:56 AM 39.2 °F 34.2 °F 37.4 °F 93% 29.87 in 10.0 mi WSW 6.9 mph - N/A   Overcast
3:16 AM 39.2 °F 34.2 °F 37.4 °F 93% 29.88 in 10.0 mi WSW 6.9 mph - N/A   Overcast
3:36 AM 39.2 °F 33.6 °F 37.4 °F 93% 29.87 in 10.0 mi WSW 8.1 mph - N/A   Overcast
3:56 AM 39.2 °F 33.6 °F 37.4 °F 93% 29.87 in 10.0 mi WSW 8.1 mph - N/A   Overcast
4:16 AM 39.2 °F 33.0 °F 37.4 °F 93% 29.87 in 10.0 mi WSW 9.2 mph - N/A   Overcast
4:36 AM 39.2 °F 33.0 °F 37.4 °F 93% 29.86 in 10.0 mi WSW 9.2 mph - N/A   Overcast
4:56 AM 39.2 °F 33.0 °F 37.4 °F 93% 29.87 in 10.0 mi WSW 9.2 mph - N/A   Overcast
5:16 AM 39.2 °F 33.6 °F 37.4 °F 93% 29.87 in 10.0 mi WSW 8.1 mph - N/A   Overcast
5:36 AM 41.0 °F 35.8 °F 37.4 °F 87% 29.87 in 10.0 mi WSW 8.1 mph - N/A   Overcast
5:56 AM 41.0 °F 35.8 °F 37.4 °F 87% 29.86 in 10.0 mi WSW 8.1 mph - N/A   Overcast
6:16 AM 39.2 °F 34.2 °F 37.4 °F 93% 29.86 in 10.0 mi WSW 6.9 mph - N/A   Overcast
6:36 AM 39.2 °F 33.0 °F 37.4 °F 93% 29.86 in 10.0 mi WSW 9.2 mph - N/A   Mostly Cloudy
6:56 AM 39.2 °F 33.6 °F 37.4 °F 93% 29.86 in 10.0 mi West 8.1 mph - N/A   Mostly Cloudy
7:16 AM 41.0 °F 37.1 °F 37.4 °F 87% 29.86 in 10.0 mi WSW 5.8 mph - N/A   Mostly Cloudy
7:36 AM 42.8 °F 37.5 °F 37.4 °F 81% 29.86 in 10.0 mi WSW 9.2 mph - N/A   Overcast
7:56 AM 42.8 °F 38.0 °F 37.4 °F 81% 29.86 in 10.0 mi WSW 8.1 mph - N/A   Overcast
8:16 AM 42.8 °F 37.0 °F 37.4 °F 81% 29.86 in 10.0 mi West 10.4 mph - N/A   Scattered Clouds
8:36 AM 42.8 °F 37.0 °F 39.2 °F 87% 29.86 in 10.0 mi WSW 10.4 mph - N/A   Mostly Cloudy
8:56 AM 44.6 °F 39.2 °F 39.2 °F 81% 29.86 in 10.0 mi West 10.4 mph - N/A   Mostly Cloudy
9:16 AM 42.8 °F 36.6 °F 37.4 °F 81% 29.86 in 10.0 mi West 11.5 mph - N/A   Partly Cloudy
9:36 AM 42.8 °F 36.2 °F 39.2 °F 87% 29.86 in 10.0 mi WSW 12.7 mph - N/A   Clear
9:56 AM 44.6 °F 38.8 °F 39.2 °F 81% 29.86 in 10.0 mi West 11.5 mph - N/A   Clear
10:16 AM 44.6 °F 38.8 °F 39.2 °F 81% 29.86 in 10.0 mi West 11.5 mph - N/A   Scattered Clouds
10:36 AM 44.6 °F 38.1 °F 41.0 °F 87% 29.87 in 10.0 mi West 13.8 mph - N/A   Scattered Clouds
10:56 AM 44.6 °F 37.8 °F 41.0 °F 87% 29.87 in 10.0 mi West 15.0 mph - N/A   Clear
11:16 AM 44.6 °F 37.2 °F 41.0 °F 87% 29.87 in 10.0 mi West 17.3 mph - N/A   Clear
11:36 AM 46.4 °F 39.5 °F 42.8 °F 87% 29.87 in 10.0 mi WSW 17.3 mph - N/A   Clear
11:56 AM 46.4 °F 39.0 °F 41.0 °F 81% 29.87 in 10.0 mi West 19.6 mph - N/A   Clear
12:16 PM 46.4 °F 38.7 °F 41.0 °F 81% 29.87 in 10.0 mi WSW 20.7 mph 24.2 mph N/A   Partly Cloudy
12:36 PM 46.4 °F 38.5 °F 41.0 °F 81% 29.87 in 10.0 mi WSW 21.9 mph - N/A   Clear
12:56 PM 48.2 °F - 41.0 °F 76% 29.87 in 10.0 mi WSW 18.4 mph 25.3 mph N/A   Clear
1:16 PM 48.2 °F - 41.0 °F 76% 29.88 in 10.0 mi West 18.4 mph 24.2 mph N/A   Clear
1:36 PM 48.2 °F - 41.0 °F 76% 29.88 in 10.0 mi West 19.6 mph - N/A   Clear
1:56 PM 48.2 °F - 41.0 °F 76% 29.88 in 10.0 mi West 18.4 mph - N/A   Clear
2:16 PM 48.2 °F - 41.0 °F 76% 29.89 in 10.0 mi WSW 18.4 mph - N/A   Clear
2:36 PM 50.0 °F - 42.8 °F 76% 29.90 in 10.0 mi WSW 19.6 mph - N/A   Clear
2:56 PM 50.0 °F - 41.0 °F 71% 29.90 in 10.0 mi West 19.6 mph - N/A   Mostly Cloudy
3:16 PM 51.8 °F - 42.8 °F 71% 29.90 in 10.0 mi WSW 19.6 mph 25.3 mph N/A   Overcast
3:36 PM 51.8 °F - 42.8 °F 71% 29.90 in 10.0 mi WSW 19.6 mph - N/A   Scattered Clouds
3:56 PM 51.8 °F - 42.8 °F 71% 29.90 in 10.0 mi WSW 20.7 mph - N/A   Clear
4:16 PM 51.8 °F - 42.8 °F 71% 29.90 in 10.0 mi West 20.7 mph 26.5 mph N/A   Clear
4:36 PM 51.8 °F - 42.8 °F 71% 29.90 in 10.0 mi West 21.9 mph - N/A   Clear
4:56 PM 50.0 °F - 42.8 °F 76% 29.90 in 10.0 mi West 19.6 mph - N/A   Clear
5:16 PM 50.0 °F - 42.8 °F 76% 29.91 in 10.0 mi West 18.4 mph - N/A   Clear
5:36 PM 48.2 °F - 42.8 °F 82% 29.90 in 10.0 mi West 16.1 mph 21.9 mph N/A   Clear
5:56 PM 48.2 °F - 42.8 °F 82% 29.91 in 10.0 mi West 18.4 mph 25.3 mph N/A   Clear
6:16 PM 48.2 °F - 42.8 °F 82% 29.90 in 10.0 mi West 18.4 mph - N/A   Clear
6:36 PM 48.2 °F - 42.8 °F 82% 29.90 in 10.0 mi West 18.4 mph - N/A   Clear
6:56 PM 48.2 °F - 41.0 °F 76% 29.90 in 10.0 mi West 17.3 mph - N/A   Clear
7:16 PM 48.2 °F - 42.8 °F 82% 29.90 in 10.0 mi West 17.3 mph - N/A   Clear
7:36 PM 48.2 °F - 42.8 °F 82% 29.90 in 10.0 mi West 16.1 mph 20.7 mph N/A   Clear
7:56 PM 51.8 °F - 44.6 °F 76% 29.90 in 10.0 mi SW 20.7 mph - N/A   Clear
8:16 PM 51.8 °F - 41.0 °F 67% 29.91 in 10.0 mi SSW 23.0 mph - N/A   Clear
8:36 PM 50.0 °F - 41.0 °F 71% 29.91 in 10.0 mi SW 19.6 mph - N/A   Clear
8:56 PM 48.2 °F - 41.0 °F 76% 29.92 in 10.0 mi SW 19.6 mph - N/A   Clear
9:16 PM 48.2 °F - 42.8 °F 82% 29.92 in 10.0 mi SW 18.4 mph 23.0 mph N/A   Clear
9:36 PM 46.4 °F 38.3 °F 39.2 °F 76% 29.92 in 10.0 mi SW 23.0 mph - N/A   Clear
9:56 PM 44.6 °F 36.1 °F 39.2 °F 81% 29.93 in 10.0 mi SSW 21.9 mph 26.5 mph N/A   Clear
10:16 PM 44.6 °F 36.4 °F 39.2 °F 81% 29.93 in 10.0 mi SSW 20.7 mph - N/A   Partly Cloudy
10:36 PM 42.8 °F 35.1 °F 39.2 °F 87% 29.93 in 10.0 mi WSW 16.1 mph 21.9 mph N/A   Mostly Cloudy
10:56 PM 42.8 °F 34.5 °F 37.4 °F 81% 29.94 in 10.0 mi SW 18.4 mph 26.5 mph N/A   Scattered Clouds
11:16 PM 42.8 °F 35.8 °F 37.4 °F 81% 29.93 in 10.0 mi SW 13.8 mph - N/A   Clear
11:36 PM 42.8 °F 35.4 °F 37.4 °F 81% 29.93 in 10.0 mi WSW 15.0 mph 18.4 mph N/A   Clear
11:56 PM 42.8 °F 34.3 °F 37.4 °F 81% 29.92 in 10.0 mi SSW 19.6 mph 27.6 mph N/A   Clear